Regional Weather Roundup
Issued by NWS Northern Indiana

Home | Current Version | Previous Version | Text Only | Print | Product List | Glossary On
Versions: 1 2 3 4 5 6 7 8 9 10 11 12 13 14 15 16 17 18 19 20 21 22 23 24 25 26 27 28 29 30 31 32 33 34 35 36 37 38 39 40 41 42 43 44 45 46 47 48 49 50
000
ASUS43 KIWX 182110
RWRIWX

KIWX WEATHER ROUNDUP
NATIONAL WEATHER SERVICE NORTHERN INDIANA
500 PM EDT SUN APR 18 2021

NOTE: "FAIR" INDICATES FEW OR NO CLOUDS BELOW 12,000 FEET WITH NO
SIGNIFICANT WEATHER AND/OR OBSTRUCTIONS TO VISIBILITY.

* THESE STATIONS ARE NOT UNDER NWS QUALITY CONTROL. THEY ALSO MAY NOT
  REPORT WEATHER SUCH AS PRECIPITATION OR FOG.

INZ001>027-182200-
NORTHERN INDIANA

CITY           SKY/WX    TMP DP  RH WIND       PRES   REMARKS
GARY*          CLOUDY    61  28  29 SW10      29.87F
VALPARAISO     PTSUNNY   61  28  28 SW14      29.87F
MICHIGAN CITY* PTSUNNY   59  28  31 W5        29.87F
LAPORTE*       PTSUNNY   59  30  32 W8        29.88S
KNOX*          PTSUNNY   61  25  25 SW6       29.87F
SOUTH BEND     CLOUDY    60  27  28 NW8       29.88F
ELKHART*       MOSUNNY   59  28  31 NW7       29.87F
GOSHEN         MOSUNNY   60  29  30 SW7       29.87F
MONTICELLO*    PTSUNNY   59  27  29 S6        29.88F
LOGANSPORT*    PTSUNNY   61  28  29 CALM      29.89F
ROCHESTER*     MOSUNNY   59  27  29 SW3       29.89F
PLYMOUTH*      PTSUNNY   61  27  27 SW10      29.87F
WARSAW*        MOSUNNY   59  28  31 W8        29.88F
AUBURN*        PTSUNNY   59  28  31 W8        29.87F
FORT WAYNE     CLOUDY    59  32  36 N6        29.88F
HUNTINGTON*    MOSUNNY   60  28  29 NW7       29.88F
PERU/GRISSOM   PTSUNNY   60  30  31 NW14      29.87F

$$
INZ028>050-182200-
CENTRAL INDIANA

CITY           SKY/WX    TMP DP  RH WIND       PRES   REMARKS
LAFAYETTE      CLOUDY    63  34  33 VRB5      29.88F
KOKOMO*        MOSUNNY   62  27  26 W13       29.89F
MARION*        MOSUNNY   60  29  31 W6        29.89F
MUNCIE*        SUNNY     64  30  27 NW9G16    29.88F
PORTLAND*      FAIR      61  23  23 NW8       29.88F
INDIANAPOLIS   PTSUNNY   61  32  33 SW6       29.87F

$$
MIZ043>046-050>051-056>058-064>065-071>073-077>080-182200-
SOUTHWEST LOWER MICHIGAN

CITY           SKY/WX    TMP DP  RH WIND       PRES   REMARKS
BATTLE CREEK   PTSUNNY   59  27  29 VRB7      29.86F
BENTON HARBOR  CLOUDY    58  29  33 W10       29.87F
COLDWATER*     MOSUNNY   60  23  23 SW7G17    29.86F
HILLSDALE*     CLOUDY    58  22  25 W8        29.85F
HOLLAND        MOSUNNY   57  31  37 SW13      29.87F
GRAND RAPIDS   PTSUNNY   59  29  31 W15G23    29.85F
KALAMAZOO      PTSUNNY   61  28  28 SW7       29.86F
STURGIS*       MOSUNNY   59  26  28 W7        29.86F
THREE RIVERS*  CLOUDY    58  28  32 W10G16    29.87S

$$
OHZ001>008-015>018-024>025-182200-
NORTHWEST OHIO

CITY           SKY/WX    TMP DP  RH WIND       PRES   REMARKS
WAUSEON*       CLOUDY    61  28  29 N7        29.85F
DEFIANCE       LGT RAIN  59  35  40 CALM      29.87F
FINDLAY        PTSUNNY   62  30  29 W13       29.85F
OTTAWA*        FAIR      61  25  25 CALM      29.88F
TOLEDO EXPRESS MOSUNNY   63  23  21 NW6       29.85F
VAN WERT*      FAIR      61  30  31 NW12      29.88S
LIMA           MOSUNNY   58  24  27 NW9       29.87F

$$
AND FOR LAKE MICHIGAN COASTAL AND OPEN LAKE BUOY OBSERVATIONS

STATION/POSITION TEMP    WIND        PRES    VSBY  WAVE
                 AIR SEA DIR/SP/G                  HT/PER
                 (F)     (DEG/KT/KT) (MB)    (MI)  (FT/S)
CALUMET HARBOR            60/  6/  7 1010.7
MICHIGAN CITY     53      30/  3/  3 1012.4F
BURNS HARBOR      53      60/  3/  3 1011.9F
SAINT JOSEPH      52     210/  6/  6 1012.5
4 MI NW BRIDGMAN  51 49              1012.8          1

$$
&&



USA.gov is the U.S. government's official web portal to all federal, state and local government web resources and services.